Location: Houston
(29.7631°N, 95.3631°W)
Time: 11:35:58
(UTC-05:00)

UNISAT 6 - Pass Details

Date: 26 September 2021
Orbit: 606 x 687 km, 97.7° (Epoch: 27 October)

Event Time Altitude Azimuth Distance (km) Brightness Sun altitude
Rises 20:18:10 0° 10° (N) 3,055 ? -15.0°
Reaches altitude 10° 20:20:26 10° 10° (N) 2,132 ? -15.5°
Maximum altitude 20:25:06 86° 284° (WNW) 684 ? -16.5°
Drops below altitude 10° 20:29:41 10° 194° (SSW) 2,087 ? -17.5°
Sets 20:31:53 0° 194° (SSW) 2,985 ? -18.0°
